Terminal Aerodrome Forecast
Issued by NWS

Home | Current Version | Previous Version | Graphics & Text | Print | Product List | Glossary On
Versions: 1 2 3 4 5 6 7 8 9 10 11 12 13 14 15 16 17 18 19 20 21 22 23 24 25 26 27 28 29 30 31 32
000
FTUS45 KGGW 021100
TAFGDV
TAF
KGDV 021134Z 0212/0312 VRB05KT P6SM SCT010
      TEMPO 0212/0214 BKN010
     FM021500 33010KT P6SM SCT015
     FM021900 33011KT P6SM BKN070
     FM030300 VRB04KT P6SM BKN190
     FM030600 00000KT P6SM FEW190
      AMD LTD TO CLD VIS AND WIND=

USA.gov is the U.S. government's official web portal to all federal, state and local government web resources and services.